Temperature
14 15 15 15 12 10 12 13 13 14 15 16 17 16 15 15 16 17 17 17 17 17 16 16 16 16 16 16 16 16 16 16 16 16 16 16 16 16 16 16 16 16 16 16 16 15 15 16 16
14 14 15 14 11 12 12 12 13 14 16 16 16 16 16 16 16 17 17 17 16 16 16 16 16 16 16 16 16 16 16 16 16 16 16 16 16 16 16 16 16 16 16 16 16 15 15 15 15
14 14 14 10 10 11 13 13 13 14 16 16 16 16 16 16 16 16 17 16 16 16 16 15 15 15 16 16 16 16 16 16 16 16 16 16 16 16 16 16 16 16 16 15 15 15 15 15 15
14 14 13 10 11 11 12 14 13 14 15 16 16 15 15 15 16 16 16 16 16 16 16 15 15 15 15 15 16 16 16 16 16 15 15 15 16 16 16 16 16 16 16 15 15 15 15 15 15
13 13 10 10 11 11 11 12 14 14 14 15 15 14 15 15 16 16 16 16 16 15 15 15 15 15 15 15 15 15 16 16 15 15 15 15 15 15 15 15 15 15 15 15 15 15 15 15 15
13 10 9 10 10 11 11 13 14 13 14 15 15 14 15 15 16 16 16 15 15 15 15 15 15 15 15 15 15 15 15 15 15 15 15 15 15 15 15 15 15 15 15 15 15 15 15 15 15
12 8 9 10 10 11 12 14 13 13 13 15 15 14 14 15 15 15 15 15 14 14 14 14 14 15 15 15 15 15 15 15 15 15 15 15 15 15 15 15 15 15 15 15 15 15 15 15 15
12 8 10 9 10 11 13 13 14 14 14 15 15 14 14 15 15 14 14 14 14 14 14 14 14 14 14 15 15 15 15 15 15 15 15 15 15 15 15 15 15 15 15 15 15 14 15 14 14
12 8 8 9 10 12 13 13 14 14 14 14 15 15 15 15 15 14 14 14 14 14 14 14 14 14 14 14 14 15 15 15 15 15 15 15 15 15 15 15 15 15 14 14 14 14 14 14 14
11 8 9 10 10 12 12 12 13 13 13 13 14 14 14 14 14 14 14 14 14 14 14 14 14 14 14 14 14 14 14 14 14 14 14 14 14 14 14 14 14 14 14 14 14 14 14 14 14
9 8 9 10 12 12 12 12 13 12 11 13 14 14 14 14 14 14 14 14 14 14 14 14 14 14 14 14 14 14 14 14 14 14 14 14 14 14 14 14 14 14 14 14 14 14 13 14 13
8 8 10 11 12 12 12 12 12 12 13 14 14 14 14 14 14 14 14 14 13 13 13 13 13 13 13 13 13 14 14 14 14 14 14 14 14 14 14 14 14 14 14 14 13 13 13 13 13
8 9 10 11 11 11 11 11 11 11 13 13 13 13 13 14 14 14 13 13 13 13 13 13 13 13 13 13 13 13 13 13 13 13 13 13 13 13 13 13 13 13 13 13 13 13 13 13 13
9 9 10 10 10 11 10 10 10 11 13 13 13 13 13 13 13 13 13 13 13 13 13 13 13 13 13 13 13 13 13 13 13 13 13 13 13 13 13 13 13 13 13 13 13 13 13 13 13
9 8 8 9 9 10 10 9 8 11 12 12 12 12 12 13 13 13 13 13 13 13 13 13 12 12 12 12 13 13 12 12 12 12 12 12 12 12 13 13 13 13 13 13 13 12 12 12 12
8 8 8 8 8 9 9 9 10 11 11 10 11 12 12 12 12 12 13 13 13 13 13 12 12 12 12 12 12 12 12 12 12 12 12 12 12 12 12 12 12 12 12 12 12 12 12 12 12
7 7 7 8 8 8 8 8 9 10 10 9 10 11 11 12 12 12 12 12 12 12 12 12 12 12 12 12 12 12 12 12 11 11 11 12 12 12 12 12 12 12 12 12 12 12 12 12 12
7 6 7 7 8 7 7 7 8 9 9 8 9 10 10 11 12 12 12 12 12 12 12 12 12 12 11 11 11 11 11 11 11 11 11 11 11 11 11 11 12 12 12 12 12 12 12 11 11
7 7 7 7 8 7 7 7 8 8 7 7 8 9 10 11 12 12 12 12 12 11 11 11 11 11 11 11 11 11 11 11 11 10 10 11 11 11 11 11 11 11 11 11 11 11 11 11 11
7 6 6 7 7 7 7 7 7 7 7 8 8 9 10 10 11 11 11 11 11 11 11 11 11 11 11 11 11 11 10 10 10 10 10 10 10 10 11 11 11 11 11 11 11 11 11 11 11
6 6 6 7 7 7 7 6 6 6 7 8 8 9 10 10 11 11 11 11 11 11 11 11 11 11 11 10 10 10 10 10 10 10 10 10 10 10 10 10 10 10 10 11 11 11 11 11 11
6 7 7 7 6 5 6 6 6 6 6 6 7 8 9 10 10 10 10 10 10 11 10 10 10 10 10 10 10 10 10 9 9 9 10 10 10 10 10 10 10 10 10 10 10 10 10 11 10
6 7 6 6 6 5 5 5 5 5 6 7 6 7 8 9 9 10 10 10 10 10 10 10 10 10 10 9 9 9 9 9 9 9 9 9 9 9 9 9 9 10 10 10 10 10 10 10 10
6 6 5 5 5 5 5 5 5 5 6 7 6 7 7 8 9 9 9 9 9 9 9 9 9 9 9 9 9 9 9 9 9 9 9 9 9 9 9 9 9 9 9 9 9 10 10 10 10
6 5 5 5 5 5 5 5 5 5 5 6 6 6 7 8 8 8 8 8 9 9 9 9 9 9 9 8 8 8 9 9 9 9 9 8 8 8 9 9 8 8 8 9 9 9 9 9 9
5 5 5 5 5 4 4 4 5 5 5 5 6 6 6 6 7 7 8 8 8 8 9 9 9 9 8 8 8 8 8 8 8 8 8 8 8 8 8 8 8 8 8 8 8 9 9 9 9
5 5 5 5 4 4 4 3 4 4 4 4 4 4 4 5 6 6 7 7 7 8 8 8 9 8 8 8 8 8 8 8 8 8 8 8 7 7 7 7 7 7 8 8 8 8 8 8 8
4 4 4 4 4 5 4 4 4 4 4 4 3 3 4 4 5 6 6 7 7 7 7 8 8 8 8 7 7 7 7 7 7 7 7 7 7 7 7 7 7 7 7 7 7 7 8 8 8
3 3 3 3 4 4 4 4 4 4 4 4 3 3 3 4 4 5 6 6 6 6 6 7 7 7 7 7 7 7 7 7 7 7 7 7 6 6 6 6 6 7 6 7 7 7 7 7 7
3 2 2 3 2 2 3 4 4 3 3 3 3 3 3 4 4 4 5 5 6 6 6 6 6 7 7 7 6 6 6 6 6 6 6 6 6 6 6 6 6 6 6 6 6 6 6 7 7
Wind_Speed
5 3 3 4 5 4 4 6 4 4 4 2 2 4 6 6 5 3 0 4 6 6 8 10 11 11 11 10 10 10 10 11 11 12 12 13 12 12 12 12 12 12 12 12 12 12 13 13 13
2 2 5 5 5 2 6 6 6 6 4 2 2 3 3 3 0 2 2 3 6 7 8 9 10 10 10 10 10 10 9 10 10 11 11 12 12 12 11 11 11 11 11 11 11 12 12 12 12
2 4 5 5 5 7 7 5 7 3 1 1 2 1 2 2 1 3 3 5 6 6 7 8 11 10 9 9 9 9 9 9 9 10 10 10 11 11 11 11 11 11 11 11 11 11 11 11 11
3 5 5 3 6 7 6 3 3 2 0 1 3 1 1 1 2 3 4 7 7 5 7 8 10 10 9 8 8 8 8 8 8 9 9 9 10 10 11 11 11 11 11 11 11 11 10 10 10
4 4 3 1 6 6 5 5 3 3 3 2 3 3 1 2 2 4 7 7 8 5 6 7 9 9 9 8 7 7 7 8 8 7 8 8 8 9 10 11 11 11 11 11 11 10 10 10 10
4 4 3 5 7 6 5 4 3 4 3 2 5 4 3 1 3 4 6 6 6 6 5 6 8 8 8 7 7 7 7 7 7 7 7 7 8 9 9 10 10 11 11 11 10 10 10 10 10
5 5 5 6 4 6 5 4 5 5 4 5 6 5 2 1 2 5 6 6 5 5 4 5 6 7 8 7 6 6 7 6 6 6 6 6 7 8 8 9 10 11 11 11 11 10 10 10 10
5 5 4 4 5 6 3 3 3 6 5 2 6 7 5 4 4 6 6 5 4 4 3 3 4 5 6 6 6 6 6 6 6 6 6 6 6 7 7 8 9 10 11 11 11 11 10 10 9
4 3 5 7 7 6 2 2 2 1 2 2 2 3 2 6 7 7 4 3 3 3 2 3 3 4 5 6 6 6 6 6 6 5 6 5 5 5 6 7 8 8 9 10 11 11 11 9 9
4 5 9 6 6 4 2 3 3 1 1 2 1 0 3 7 8 8 6 6 5 5 3 3 3 3 4 5 5 5 5 5 5 5 5 5 5 5 5 6 7 7 8 9 10 11 10 9 8
6 8 5 5 5 3 3 3 2 4 5 7 7 5 5 6 6 7 7 7 7 5 4 3 3 3 4 3 4 4 4 4 5 5 6 5 5 4 5 5 5 6 7 6 8 9 8 8 7
5 6 5 4 3 3 4 3 3 7 8 5 6 6 7 8 8 9 9 7 5 5 5 4 4 3 4 4 4 4 4 4 4 5 6 5 4 4 4 4 4 5 6 6 6 6 7 7 8
6 5 5 6 6 5 4 6 5 8 8 3 3 5 8 9 9 7 6 6 5 5 5 4 4 5 4 4 3 4 4 4 5 5 6 7 5 4 4 4 4 5 6 6 6 6 6 6 6
5 5 5 5 6 4 6 7 5 10 5 4 5 7 8 9 9 6 5 6 6 6 6 4 5 5 5 4 4 4 5 5 6 6 7 8 7 5 4 3 4 4 6 7 7 6 5 4 5
1 2 6 6 6 4 3 8 10 10 4 6 7 7 8 8 7 8 8 7 7 6 5 5 5 4 5 5 5 4 4 5 5 6 7 8 8 7 5 3 3 4 6 7 6 6 5 4 4
1 2 5 5 5 5 6 12 10 6 7 8 8 7 7 7 7 7 7 6 6 5 5 5 5 4 5 4 4 4 4 5 5 6 7 8 8 8 6 4 3 5 6 6 4 4 3 3 3
3 5 7 4 5 5 8 10 7 3 6 8 8 8 7 6 6 6 6 6 6 6 6 5 4 5 5 4 3 4 4 4 4 5 6 7 8 8 7 4 4 6 5 4 4 3 3 3 4
8 7 5 7 4 5 7 11 9 4 5 8 7 6 6 7 8 6 5 5 5 5 5 5 4 4 4 3 3 2 3 3 3 4 5 6 6 7 7 5 5 6 4 3 3 4 3 3 4
5 6 7 6 4 5 10 13 12 8 6 7 7 7 7 8 6 3 4 4 4 4 4 5 4 4 4 3 3 3 3 3 3 3 4 5 6 6 6 4 4 4 4 5 5 4 4 3 3
6 6 7 4 2 5 7 12 11 9 8 9 9 9 8 6 4 3 3 3 5 5 5 5 5 5 5 5 4 3 3 2 3 2 3 4 5 6 6 5 4 4 3 4 5 4 3 3 3
13 11 8 5 2 2 4 9 7 6 6 6 7 8 7 8 7 5 4 5 4 5 6 6 6 5 5 5 4 4 3 2 2 2 2 3 4 5 5 5 4 4 4 4 4 5 6 4 2
14 10 8 6 3 4 2 6 6 5 5 7 8 7 7 7 6 5 5 5 5 6 5 5 5 5 5 6 6 7 5 4 4 3 2 2 4 4 4 5 5 4 3 3 4 4 4 6 4
6 5 7 7 6 5 4 5 8 3 6 8 7 7 6 5 6 5 6 6 5 5 5 5 5 5 5 6 7 7 5 4 3 3 3 2 3 4 4 4 4 4 3 3 3 3 3 4 4
5 3 2 2 4 8 10 8 7 5 7 5 4 4 4 4 4 3 3 3 3 3 3 4 5 5 6 7 7 8 7 5 5 4 4 3 2 2 3 4 4 3 3 3 3 3 3 3 4
7 5 3 4 6 8 7 7 9 7 6 5 4 3 3 2 2 1 2 2 3 3 4 5 6 6 7 7 7 8 8 8 8 6 5 4 2 2 3 3 3 2 2 3 3 3 3 3 4
11 10 7 7 6 3 4 8 6 5 3 2 1 1 0 1 0 1 2 2 2 3 4 4 6 6 7 8 8 7 7 6 5 6 5 5 3 3 3 4 4 3 3 3 3 2 2 2 3
7 8 4 3 2 3 5 5 6 2 2 2 1 2 1 1 1 1 1 2 2 3 3 4 5 5 6 7 7 7 7 6 6 5 5 4 3 3 4 4 4 3 3 3 3 2 2 2 2
4 6 3 4 5 6 5 5 4 3 2 1 0 1 2 2 2 2 1 1 2 2 2 3 3 4 5 6 7 6 6 7 6 6 5 5 4 4 5 5 4 4 3 3 3 3 3 3 2
3 4 3 4 3 4 4 5 3 4 2 1 2 2 1 1 2 2 2 1 0 1 1 2 2 3 4 6 6 7 6 6 6 5 6 6 5 5 6 6 5 5 4 3 3 3 3 3 2
3 5 4 5 4 3 3 5 2 1 0 0 2 2 1 2 2 2 2 1 1 1 1 2 2 2 4 5 6 7 6 6 6 6 5 6 6 5 6 6 6 6 5 4 4 4 3 4 3
Wind_Direction
352 22 66 58 59 58 235 239 219 219 217 216 172 157 163 169 176 200 149 136 132 143 156 156 152 151 149 146 140 136 135 135 140 142 141 139 138 137 135 133 131 128 124 118 116 114 112 109 108
5 52 57 64 106 194 253 237 223 216 202 140 108 123 143 200 197 131 142 162 138 142 145 150 147 147 150 150 146 140 138 138 141 144 146 146 145 143 140 137 135 131 128 123 119 115 114 113 111
79 53 85 88 151 196 227 227 223 239 233 169 131 110 166 197 203 184 198 157 136 136 141 146 147 144 143 146 148 149 145 142 143 146 147 150 152 150 147 143 139 135 132 128 124 119 116 115 114
80 53 61 100 217 224 222 242 205 184 204 185 147 139 279 331 203 201 148 142 136 136 140 148 147 148 144 141 147 153 153 153 149 147 151 152 155 158 155 150 145 141 138 133 129 126 122 120 118
59 83 91 243 243 248 241 249 204 187 196 186 154 166 247 347 64 126 136 140 141 138 139 150 147 149 146 144 147 157 160 159 156 153 157 159 160 160 157 153 149 147 143 139 137 133 131 129 123
62 77 130 226 246 261 256 224 183 198 205 177 158 161 234 9 106 133 139 140 142 143 140 149 153 151 149 148 149 158 164 164 161 160 159 160 158 157 156 157 155 153 151 147 144 139 136 131 126
118 126 190 212 241 260 246 189 184 189 201 207 170 159 250 237 160 136 131 133 135 138 135 138 150 150 152 150 150 154 163 165 165 159 153 150 153 159 159 159 161 160 158 154 150 147 142 135 129
133 131 190 215 218 246 241 186 200 182 214 205 157 170 216 206 146 122 114 118 127 134 136 132 140 141 149 156 158 155 154 160 161 155 143 137 144 153 157 158 162 162 163 161 156 152 149 141 135
106 116 212 214 204 237 225 193 240 203 171 170 190 199 209 137 128 120 117 123 144 152 150 135 140 142 149 157 161 160 156 159 158 151 144 134 135 142 148 151 158 162 164 166 163 157 150 142 136
130 193 221 213 204 214 212 205 211 158 199 213 222 335 97 129 141 149 161 176 181 188 190 167 158 153 150 160 155 158 157 155 154 149 145 138 135 141 145 148 154 160 163 166 165 158 149 138 131
176 208 221 235 229 224 218 227 204 177 228 217 207 194 156 154 164 174 182 187 197 194 190 183 175 163 156 152 152 153 151 150 154 155 152 143 133 130 132 134 145 151 152 149 153 146 140 138 135
194 230 217 239 226 216 220 217 221 209 224 215 203 179 170 179 191 196 198 197 193 190 198 192 182 172 169 161 159 161 156 158 163 168 163 151 139 134 135 134 141 143 143 138 139 137 137 136 138
212 238 226 235 246 245 248 240 238 246 242 244 200 179 192 198 206 211 207 195 187 192 199 200 193 186 175 165 169 169 169 174 177 174 174 168 161 160 152 151 152 153 149 145 142 141 137 134 134
218 232 257 250 238 236 230 254 233 253 227 217 208 207 209 209 209 206 206 202 197 198 199 196 197 189 173 178 180 183 180 180 178 179 181 177 170 165 160 160 157 160 161 157 153 150 146 143 136
201 253 280 245 217 226 191 267 234 239 200 220 225 223 220 220 214 213 209 204 202 197 192 192 194 185 180 182 182 176 177 176 174 181 183 179 174 170 164 167 173 174 167 155 146 142 138 139 139
146 214 255 250 194 195 173 253 254 224 197 228 235 233 228 227 220 217 208 203 201 190 185 191 189 183 185 182 176 173 171 172 177 179 180 181 181 175 167 172 181 174 165 155 154 155 152 153 149
201 227 234 261 208 179 192 246 264 228 198 232 239 236 230 234 235 225 209 198 195 193 186 184 184 183 187 184 173 166 161 164 171 171 174 179 181 179 173 176 177 168 159 160 168 159 155 156 152
209 212 223 227 228 187 218 247 268 265 223 238 243 237 232 232 237 226 209 195 188 189 185 184 182 185 178 167 157 153 150 158 159 166 171 170 177 177 173 170 172 164 162 166 167 157 145 143 144
179 196 230 238 227 209 236 253 262 260 246 248 246 235 233 237 240 218 202 184 169 175 181 184 179 180 167 163 168 174 182 175 169 165 168 168 169 170 168 167 167 167 175 178 172 157 143 128 128
219 227 239 268 236 220 258 266 263 246 234 233 237 236 232 236 237 215 197 175 173 180 188 187 185 176 174 176 172 166 159 159 165 148 146 163 164 167 168 166 175 174 173 171 173 160 147 144 151
224 221 220 233 327 286 295 289 260 252 228 233 231 229 226 219 219 208 197 192 183 187 189 190 189 179 174 166 145 129 113 107 115 134 162 161 163 165 162 162 162 169 174 179 178 170 161 163 167
232 217 209 217 231 261 217 280 274 250 257 243 237 231 227 219 212 205 197 197 199 204 194 187 183 177 173 167 161 155 157 163 178 176 170 154 151 154 158 155 155 161 166 173 180 177 169 163 173
217 185 195 205 205 247 222 241 279 257 255 249 234 229 226 217 203 201 200 202 204 202 191 187 178 178 174 175 174 173 173 164 150 137 134 144 145 140 144 150 150 155 164 173 169 169 164 165 169
160 126 151 181 192 240 214 204 269 227 228 240 230 227 225 217 207 201 190 181 195 195 183 178 177 182 178 179 180 181 174 161 150 151 157 154 146 146 139 140 147 152 151 164 167 168 160 166 164
164 159 192 210 214 237 179 197 246 236 233 223 229 243 225 204 187 183 174 181 194 191 188 184 182 186 183 182 185 186 185 174 172 173 173 164 159 164 167 151 147 143 142 146 145 158 159 160 161
196 186 190 203 211 240 175 218 248 262 267 238 209 234 132 61 65 220 215 203 208 199 187 182 189 192 186 184 186 183 180 178 178 174 171 173 179 177 163 152 145 142 141 139 138 133 143 143 148
182 209 197 171 184 210 231 264 299 310 345 23 38 40 10 336 309 269 245 216 213 207 201 191 190 189 187 184 179 176 175 174 174 170 165 168 169 162 152 143 140 141 140 142 141 137 136 135 135
167 160 153 186 192 224 239 238 240 246 261 10 37 313 308 327 339 334 321 283 237 208 193 179 183 194 187 179 178 177 176 174 170 163 161 160 162 155 154 151 145 138 135 139 135 126 125 121 115
150 166 171 188 209 198 224 249 227 206 190 216 250 251 248 301 329 335 332 316 284 139 146 166 178 170 174 178 176 170 172 167 161 165 169 167 162 161 162 158 149 143 144 142 136 131 127 124 108
157 177 169 188 218 205 211 257 311 181 79 325 307 319 349 4 5 357 346 352 54 87 148 176 176 168 178 174 170 170 168 162 162 168 167 160 159 159 160 158 154 151 148 147 148 146 141 144 141
Height
1497 1498 1500 1503 1508 1519 1517 1509 1504 1502 1500 1498 1498 1499 1500 1502 1506 1509 1504 1502 1505 1507 1510 1513 1516 1518 1520 1522 1524 1526 1528 1529 1530 1532 1533 1535 1536 1538 1539 1540 1541 1542 1543 1545 1546 1547 1548 1549 1550
1497 1499 1502 1503 1513 1521 1516 1505 1502 1498 1497 1497 1497 1498 1498 1499 1500 1501 1501 1502 1505 1507 1510 1512 1515 1518 1520 1522 1524 1526 1527 1529 1530 1532 1533 1535 1536 1538 1539 1540 1542 1543 1544 1545 1546 1547 1548 1549 1550
1497 1499 1502 1505 1514 1515 1507 1499 1498 1495 1496 1496 1497 1497 1498 1498 1499 1499 1501 1502 1505 1507 1510 1512 1515 1517 1519 1521 1523 1525 1527 1528 1530 1532 1533 1535 1536 1538 1539 1540 1542 1543 1544 1545 1546 1548 1549 1550 1551
1498 1500 1502 1509 1509 1505 1500 1495 1494 1495 1495 1495 1496 1497 1497 1498 1498 1499 1500 1502 1504 1507 1509 1512 1514 1516 1518 1520 1522 1524 1526 1528 1529 1531 1533 1534 1536 1537 1539 1540 1542 1543 1544 1546 1547 1548 1549 1550 1551
1497 1499 1505 1510 1506 1500 1496 1494 1493 1494 1494 1494 1495 1496 1496 1497 1498 1499 1500 1502 1504 1506 1509 1511 1513 1515 1517 1519 1521 1523 1525 1527 1528 1530 1532 1534 1535 1537 1538 1540 1542 1543 1544 1546 1547 1548 1549 1551 1552
1497 1499 1510 1511 1503 1497 1493 1491 1492 1493 1493 1494 1494 1495 1495 1496 1497 1498 1500 1502 1504 1506 1508 1510 1512 1514 1516 1518 1520 1522 1523 1525 1527 1529 1531 1533 1534 1536 1538 1539 1541 1543 1544 1545 1547 1548 1550 1551 1552
1497 1502 1506 1504 1501 1496 1491 1489 1490 1490 1491 1492 1493 1494 1494 1495 1496 1498 1499 1501 1503 1505 1507 1509 1511 1513 1515 1516 1518 1520 1522 1524 1526 1528 1530 1531 1533 1535 1537 1539 1540 1542 1544 1545 1547 1548 1549 1551 1552
1494 1500 1501 1502 1499 1494 1488 1487 1487 1488 1489 1490 1492 1492 1492 1493 1494 1496 1498 1500 1502 1504 1506 1507 1509 1511 1513 1515 1517 1519 1520 1522 1524 1526 1528 1530 1532 1534 1536 1538 1539 1541 1543 1545 1546 1548 1549 1550 1552
1493 1501 1502 1498 1495 1490 1486 1486 1486 1487 1488 1488 1489 1489 1490 1491 1493 1495 1497 1499 1501 1502 1504 1506 1508 1509 1511 1513 1515 1517 1519 1521 1523 1525 1527 1529 1531 1533 1534 1536 1538 1540 1542 1544 1545 1547 1548 1550 1551
1491 1498 1493 1488 1487 1485 1485 1485 1485 1486 1486 1486 1487 1487 1488 1490 1491 1492 1494 1496 1498 1500 1502 1504 1506 1508 1509 1511 1513 1515 1517 1519 1521 1523 1525 1527 1529 1531 1533 1535 1537 1539 1541 1543 1544 1546 1548 1549 1551
1487 1489 1485 1484 1483 1483 1483 1484 1484 1484 1484 1483 1483 1484 1486 1488 1489 1490 1491 1494 1496 1498 1500 1502 1504 1505 1507 1509 1511 1513 1515 1517 1519 1521 1523 1525 1527 1529 1531 1533 1535 1537 1539 1541 1543 1545 1547 1548 1550
1485 1483 1482 1481 1481 1482 1482 1481 1482 1481 1479 1480 1481 1483 1484 1485 1486 1487 1489 1491 1493 1495 1497 1499 1501 1503 1505 1507 1508 1510 1512 1514 1516 1518 1520 1522 1524 1526 1529 1531 1533 1535 1538 1540 1542 1544 1546 1547 1549
1482 1480 1479 1479 1479 1480 1480 1479 1479 1476 1476 1478 1479 1480 1481 1482 1483 1485 1487 1489 1491 1492 1495 1497 1499 1500 1502 1504 1506 1508 1510 1512 1514 1516 1518 1520 1522 1524 1526 1529 1532 1534 1536 1538 1540 1543 1544 1546 1548
1477 1477 1477 1476 1476 1477 1477 1476 1477 1470 1473 1474 1475 1476 1477 1479 1480 1482 1484 1485 1487 1489 1492 1494 1495 1497 1499 1501 1503 1505 1507 1509 1511 1513 1515 1517 1520 1522 1524 1527 1529 1532 1534 1536 1538 1541 1543 1545 1546
1476 1477 1476 1473 1473 1474 1476 1475 1470 1467 1470 1471 1471 1472 1473 1475 1477 1478 1480 1482 1484 1486 1488 1490 1492 1494 1496 1498 1500 1502 1504 1506 1508 1510 1513 1515 1517 1519 1522 1524 1527 1529 1531 1534 1536 1539 1541 1543 1545
1475 1477 1477 1470 1470 1471 1477 1471 1463 1464 1466 1466 1467 1468 1469 1471 1472 1474 1476 1478 1481 1483 1485 1487 1489 1491 1493 1495 1497 1498 1501 1503 1505 1508 1510 1512 1514 1517 1519 1522 1524 1527 1529 1531 1534 1536 1538 1541 1542
1476 1477 1474 1471 1468 1469 1472 1468 1461 1461 1462 1462 1463 1463 1464 1466 1467 1469 1472 1474 1477 1479 1481 1483 1486 1488 1490 1492 1494 1495 1497 1499 1502 1505 1507 1509 1511 1514 1516 1518 1521 1524 1526 1528 1531 1534 1536 1538 1540
1471 1474 1472 1471 1466 1468 1469 1464 1460 1460 1460 1459 1459 1460 1461 1461 1463 1466 1468 1470 1473 1475 1478 1480 1482 1484 1486 1488 1490 1492 1494 1496 1499 1501 1503 1505 1508 1510 1513 1515 1518 1520 1523 1525 1528 1531 1533 1536 1538
1465 1468 1469 1467 1464 1466 1465 1462 1458 1457 1457 1456 1455 1456 1456 1457 1459 1462 1464 1467 1469 1471 1473 1476 1478 1480 1482 1484 1485 1487 1490 1492 1495 1497 1500 1502 1504 1506 1509 1512 1514 1517 1520 1522 1525 1528 1530 1533 1535
1464 1466 1467 1466 1464 1465 1464 1460 1455 1453 1452 1451 1451 1451 1452 1453 1455 1457 1460 1462 1465 1467 1469 1471 1473 1476 1478 1480 1482 1484 1487 1489 1492 1494 1496 1498 1500 1503 1505 1508 1511 1514 1516 1519 1522 1525 1527 1529 1532
1460 1463 1464 1466 1465 1464 1464 1458 1452 1447 1447 1446 1446 1446 1447 1449 1451 1453 1456 1458 1461 1463 1465 1467 1469 1472 1474 1477 1479 1481 1483 1486 1488 1490 1493 1495 1497 1499 1502 1505 1508 1511 1514 1516 1518 1521 1523 1525 1529
1455 1456 1460 1462 1467 1469 1466 1465 1451 1447 1445 1442 1442 1442 1442 1444 1447 1449 1452 1454 1456 1459 1461 1464 1466 1468 1470 1473 1474 1476 1478 1480 1484 1487 1490 1492 1494 1496 1499 1502 1505 1508 1510 1513 1515 1518 1520 1522 1525
1451 1452 1457 1460 1464 1468 1466 1467 1452 1446 1443 1439 1438 1438 1439 1441 1443 1445 1448 1450 1453 1455 1457 1460 1462 1464 1466 1469 1471 1473 1475 1478 1481 1484 1487 1489 1491 1493 1496 1499 1502 1504 1507 1510 1512 1514 1517 1519 1521
1449 1454 1457 1461 1464 1464 1459 1464 1451 1447 1438 1435 1434 1435 1437 1438 1440 1442 1444 1447 1449 1451 1454 1456 1458 1460 1463 1465 1467 1470 1472 1475 1478 1480 1483 1486 1488 1490 1493 1496 1498 1501 1504 1507 1509 1511 1513 1515 1518
1447 1454 1459 1460 1461 1454 1452 1455 1445 1437 1433 1432 1433 1433 1435 1436 1438 1439 1441 1443 1445 1447 1449 1452 1454 1456 1459 1461 1463 1466 1469 1472 1475 1477 1480 1482 1484 1486 1489 1492 1495 1498 1501 1503 1506 1508 1510 1512 1515
1442 1445 1450 1452 1452 1453 1453 1450 1440 1432 1430 1430 1431 1432 1433 1434 1435 1437 1438 1440 1442 1444 1446 1448 1450 1452 1455 1458 1460 1463 1466 1469 1472 1474 1477 1479 1481 1484 1486 1489 1492 1495 1498 1500 1503 1505 1507 1510 1511
1440 1442 1442 1448 1452 1454 1450 1446 1439 1431 1430 1431 1432 1432 1432 1433 1434 1435 1437 1438 1439 1441 1443 1445 1446 1449 1451 1454 1457 1460 1463 1466 1468 1471 1474 1476 1479 1481 1483 1486 1488 1491 1494 1497 1500 1502 1504 1506 1508
1436 1439 1445 1447 1447 1445 1444 1444 1439 1434 1431 1432 1432 1432 1432 1433 1433 1434 1435 1436 1437 1439 1440 1442 1444 1445 1448 1451 1454 1457 1460 1463 1466 1468 1471 1473 1475 1478 1480 1483 1485 1488 1491 1494 1497 1499 1501 1503 1505
1438 1441 1442 1444 1443 1442 1444 1440 1433 1431 1431 1432 1432 1432 1432 1432 1432 1433 1433 1434 1435 1437 1438 1440 1441 1443 1445 1448 1451 1454 1457 1460 1463 1465 1468 1470 1472 1475 1477 1479 1482 1485 1488 1491 1493 1496 1498 1500 1502
1435 1438 1441 1444 1446 1446 1445 1440 1430 1430 1431 1431 1431 1431 1431 1431 1432 1432 1432 1433 1434 1435 1436 1437 1439 1441 1443 1445 1448 1451 1454 1457 1459 1462 1465 1467 1469 1471 1474 1476 1479 1481 1485 1488 1490 1493 1495 1497 1499